This demonstration page uses our WeatherBlox Daily Observations layout. Learn more.

38.88101, -77.10428

Hourly Observations for October 18, 2016

Temp ( °F °C ) Dew Point ( °F °C ) Humidity (%) Winds ( mph kmh ) Pressure ( in mb ) Visibility ( mi km ) Precip ( " mm )
12:52 am 00:52 Clear 66 18.9 64 17.8 93 93 SSW 3 6 29.94 1014 10 16.09344 0 0
1:52 am 01:52 Clear 65 18.3 64 17.8 97 97 S 7 11 29.94 1014 10 16.09344 0 0
2:52 am 02:52 Clear 65 18.3 64 17.8 97 97 S 6 9 29.94 1014 10 16.09344 0 0
3:52 am 03:52 Clear 64 17.8 63 17.2 96 96 S 6 9 29.94 1014 10 16.09344 0 0
4:52 am 04:52 Clear 64 17.8 63 17.2 96 96 S 7 11 29.94 1014 10 16.09344 0 0
5:52 am 05:52 Clear 63 17.2 62 16.7 97 97 SSW 6 9 29.94 1014 10 16.09344 0 0
6:52 am 06:52 Mostly Clear 63 17.2 62 16.7 97 97 S 5 7 29.94 1014 10 16.09344 0 0
7:52 am 07:52 Mostly Sunny 63 17.2 62 16.7 97 97 S 5 7 29.97 1015 10 16.09344 0 0
8:52 am 08:52 Sunny 66 18.9 64 17.8 93 93 S 7 11 29.97 1015 10 16.09344 0 0
9:52 am 09:52 Mostly Sunny 68 20 64 17.8 87 87 S 8 13 29.97 1015 10 16.09344 0 0
10:52 am 10:52 Mostly Sunny 70 21.1 65 18.3 84 84 S 10 17 29.97 1015 10 16.09344 0 0
11:52 am 11:52 Partly Cloudy 73 22.8 65 18.3 76 76 S 10 17 29.97 1015 10 16.09344 0 0
12:52 pm 12:52 Mostly Cloudy 76 24.4 65 18.3 69 69 S 10 17 29.94 1014 10 16.09344 0 0
1:52 pm 13:52 Mostly Cloudy 79 26.1 65 18.3 62 62 S 9 15 29.91 1013 10 16.09344 0 0
2:52 pm 14:52 Partly Cloudy 80 26.7 64 17.8 58 58 S 10 17 29.91 1013 10 16.09344 0 0
3:52 pm 15:52 Mostly Sunny 81 27.2 64 17.8 57 57 S 10 17 29.88 1012 10 16.09344 0 0
4:52 pm 16:52 Mostly Sunny 82 27.8 64 17.8 55 55 S 12 19 29.88 1012 10 16.09344 0 0
5:52 pm 17:52 Mostly Sunny 77 25 65 18.3 66 66 S 12 19 29.88 1012 10 16.09344 0 0
6:52 pm 18:52 Mostly Clear 74 23.3 65 18.3 74 74 S 9 15 29.88 1012 10 16.09344 0 0
7:52 pm 19:52 Clear 75 23.9 65 18.3 71 71 SSW 9 15 29.91 1013 10 16.09344 0 0
8:52 pm 20:52 Clear 72 22.2 66 18.9 82 82 S 10 17 29.91 1013 10 16.09344 0 0
9:52 pm 21:52 Clear 71 21.7 66 18.9 84 84 S 9 15 29.94 1014 10 16.09344 0 0
10:52 pm 22:52 Clear 70 21.1 66 18.9 87 87 S 8 13 29.94 1014 10 16.09344 0 0
11:52 pm 23:52 Clear 70 21.1 66 18.9 87 87 S 9 15 29.94 1014 10 16.09344 0 0

Powered by AerisWeather